CAPE
860 648 342 237 78 0 0 0 0 0 0 0 0 0 0 0 0 0 0 0 0 0 1 0 0 0 4 8 14 32 9 0 1 1 2 2 2 2 3 3 3 4 5
546 515 244 247 81 0 0 0 0 0 0 0 0 0 0 0 0 0 0 0 0 0 0 0 0 0 0 11 33 38 36 19 10 0 3 3 2 2 3 3 3 3 3
292 484 232 230 36 7 0 0 0 0 0 0 0 0 0 0 0 0 0 0 0 0 0 0 0 0 0 0 0 0 0 0 0 0 0 3 3 2 3 2 2 1 2
312 478 303 176 91 18 0 0 0 0 0 0 0 0 0 0 0 0 0 0 0 0 0 0 0 0 0 0 0 0 0 0 0 1 2 3 3 2 2 2 2 2 1
629 663 356 167 112 50 1 0 0 0 0 0 0 0 0 0 0 0 0 0 0 0 0 0 0 0 0 0 0 0 0 0 0 1 2 3 3 2 1 1 2 1 0
849 795 434 274 145 61 0 0 0 0 0 0 0 0 0 0 0 0 0 0 0 0 0 0 0 0 0 0 0 0 0 0 0 0 1 1 2 0 0 1 1 0 0
863 836 490 225 96 39 10 0 0 0 0 0 0 0 0 0 0 0 0 0 0 0 0 0 0 0 0 0 0 0 0 0 0 0 0 0 1 0 0 0 0 0 0
826 902 438 192 34 36 14 0 0 0 0 0 0 0 0 0 0 0 0 0 0 0 0 0 0 0 0 0 0 0 0 0 0 0 0 0 0 0 0 0 0 0 0
653 601 333 12 90 107 55 7 3 0 0 0 0 0 0 0 0 0 0 0 0 0 0 0 0 0 0 0 0 0 0 0 0 0 0 0 0 0 0 0 0 0 0
2 268 227 238 65 111 20 4 2 0 0 0 0 0 0 0 0 0 0 0 0 0 0 0 0 0 0 0 0 0 0 0 0 0 0 0 0 0 0 0 0 0 2
0 0 13 65 194 181 21 1 1 0 0 0 0 0 0 0 0 0 0 0 0 0 0 0 0 0 0 0 0 0 0 0 0 0 0 0 0 0 0 0 0 0 1
0 0 0 0 117 83 19 0 0 0 0 0 0 0 0 0 0 0 0 0 0 0 0 0 0 0 0 0 0 0 0 0 0 0 0 0 0 0 0 0 0 0 0
0 0 0 0 0 2 2 0 0 0 0 0 0 0 0 0 0 0 0 0 0 0 0 0 0 0 0 0 0 0 0 0 0 0 0 0 0 0 0 0 0 0 0
0 0 0 0 0 0 0 0 0 0 0 0 0 0 0 0 0 0 0 0 0 0 0 0 0 0 0 0 0 0 0 0 0 0 0 0 0 0 0 0 0 0 0
0 0 0 0 1 0 0 1 0 0 0 0 0 0 0 0 0 0 0 0 0 0 0 0 0 0 0 0 0 0 0 0 0 0 0 0 0 0 0 0 0 0 0
0 0 0 0 0 0 0 0 0 0 0 0 0 0 0 0 0 0 0 0 0 0 0 0 0 0 0 0 0 0 0 0 0 0 0 0 0 0 0 0 0 0 0
0 0 0 0 0 0 0 0 0 0 0 0 0 0 0 0 0 0 0 0 0 0 0 0 0 0 0 0 0 0 0 0 0 0 0 0 0 0 0 0 0 0 0
0 0 0 0 0 0 0 0 0 0 0 0 0 0 0 0 0 0 0 0 0 0 0 0 0 0 0 0 0 0 0 0 0 0 0 0 0 0 0 0 0 0 0
0 0 0 0 0 0 0 0 0 0 0 0 0 0 0 0 0 0 0 0 0 0 0 0 0 0 0 0 0 0 0 0 0 0 0 0 0 0 0 0 0 0 0
0 0 0 0 0 0 0 0 0 0 0 0 0 0 0 0 0 0 0 0 0 0 0 0 0 0 0 0 0 0 0 0 0 0 0 0 0 0 0 0 0 0 0
0 0 0 0 0 0 0 0 0 0 0 0 0 0 0 0 0 0 0 0 0 0 0 0 0 0 0 0 0 0 0 0 0 0 0 0 0 0 0 0 0 0 0
0 0 0 0 0 0 0 0 0 0 0 0 0 0 0 0 0 0 0 0 0 0 0 0 0 0 0 0 0 0 0 0 0 0 0 0 0 0 0 0 0 0 0
0 0 0 0 0 0 0 0 0 0 0 0 0 0 0 0 0 0 0 0 0 0 0 0 0 0 0 0 0 0 0 0 0 0 0 0 0 0 0 0 0 0 0
0 0 0 0 0 0 0 0 0 0 0 0 0 0 0 0 0 0 0 0 0 0 0 0 0 0 0 0 0 0 0 0 0 0 0 0 0 0 0 0 0 0 0
0 0 0 0 0 0 0 0 0 0 0 0 0 0 0 0 0 0 0 0 0 0 0 0 0 0 0 0 0 0 0 0 0 0 0 0 0 0 0 0 0 0 0
0 0 0 0 0 0 0 0 0 0 0 0 0 0 0 0 0 0 0 0 0 0 0 0 0 0 0 0 0 0 0 0 0 0 0 0 0 0 0 0 0 0 0
CIN
-86 -81 -109 -126 -188 0 0 0 0 0 0 0 0 0 0 0 0 0 0 0 0 0 0 0 0 0 -49 -56 -59 -47 -58 -5 -10 0 0 0 0 0 0 0 0 0 0
-25 -91 -132 -117 -212 0 0 0 0 0 0 0 0 0 0 0 0 0 0 0 0 0 0 0 0 0 0 -58 -48 -46 -37 -31 -34 0 0 0 0 0 0 0 0 0 0
-64 -60 -127 -93 -164 -127 0 0 0 0 0 0 0 0 0 0 0 0 0 0 0 0 0 -1 0 0 0 0 0 0 0 -15 -13 0 0 0 0 0 0 0 0 0 0
-66 -55 -76 -107 -160 -217 0 0 0 0 0 0 0 0 0 0 0 0 0 0 0 0 0 0 0 0 0 0 0 0 0 0 0 0 0 0 0 0 0 0 0 0 0
-78 -66 -82 -137 -181 -208 -58 0 0 0 0 0 0 0 0 0 0 0 0 0 0 0 0 0 0 0 0 0 0 0 0 0 0 -40 0 0 0 0 0 0 0 0 0
-70 -93 -112 -136 -159 -198 -3 0 0 0 0 0 0 0 0 0 0 0 0 0 0 0 0 0 0 0 0 0 0 0 0 0 0 0 0 0 0 0 0 0 0 0 0
-57 -50 -84 -122 -124 -159 -186 0 0 0 0 0 0 0 0 0 0 0 0 0 0 0 0 0 0 0 0 0 0 0 0 0 0 0 0 0 -3 0 0 0 0 0 0
-49 -28 -63 -80 -56 -68 -111 0 0 0 0 0 0 0 0 0 0 0 0 0 0 0 0 0 0 0 0 0 0 0 0 0 0 0 0 0 -7 0 0 -4 -2 0 0
-103 -76 -54 -109 -65 -59 -143 -172 -161 0 0 0 0 0 0 0 0 0 0 0 0 0 0 0 0 0 0 0 0 0 0 0 0 0 0 0 0 0 0 0 0 0 0
-186 -164 -120 -73 -74 -68 -122 -222 -185 0 0 0 0 0 0 0 0 0 0 0 0 0 0 0 0 0 0 0 0 0 0 0 0 0 0 0 0 0 0 0 0 0 -17
0 0 -264 -205 -98 -105 -134 -68 -161 0 0 0 0 0 0 0 0 0 0 0 0 0 0 0 0 0 0 0 0 0 0 0 0 0 0 0 0 0 0 0 0 0 -6
0 0 0 0 -137 -177 -163 0 0 0 0 0 0 0 0 0 0 0 0 0 0 0 0 0 0 0 0 0 0 0 0 0 0 0 0 0 0 0 0 0 0 0 0
0 0 0 0 -4 -25 -106 0 0 0 0 0 0 0 0 0 0 0 0 0 0 0 0 0 0 0 0 0 0 0 0 0 0 0 0 0 0 0 0 0 0 0 0
0 0 0 0 0 0 0 0 0 0 0 0 0 0 0 0 0 0 0 0 0 0 0 0 0 0 0 0 0 0 0 0 0 0 0 0 0 0 0 0 0 0 0
0 0 0 0 0 0 0 0 0 0 0 0 0 0 0 0 0 0 0 0 0 0 0 0 0 0 0 0 0 0 0 0 0 0 0 0 0 0 0 0 0 0 0
0 0 0 0 0 0 0 0 0 0 0 0 0 0 0 0 0 0 0 0 0 0 0 0 0 0 0 0 0 0 0 0 0 0 0 0 0 0 0 0 0 0 0
0 0 0 0 0 0 0 0 0 0 0 0 0 0 0 0 0 0 0 0 0 0 0 0 0 0 0 0 0 0 0 0 0 0 0 0 0 0 0 0 0 0 0
0 0 0 0 0 0 0 0 0 0 0 0 0 0 0 0 0 0 0 0 0 0 0 0 0 0 0 0 0 0 0 0 0 0 0 0 0 0 0 0 0 0 0
0 0 0 0 0 0 0 0 0 0 0 0 0 0 0 0 0 0 0 0 0 0 0 0 0 0 0 0 0 0 0 0 0 0 0 0 0 0 0 0 0 0 0
0 0 0 0 0 0 0 0 0 0 0 0 0 0 0 0 0 0 0 0 0 0 0 0 0 0 0 0 0 0 0 0 0 0 0 0 0 0 0 0 0 0 0
0 0 0 0 0 0 0 0 0 0 0 0 0 0 0 0 0 0 0 0 0 0 0 0 0 0 0 0 0 0 0 0 0 0 0 0 0 0 0 0 0 0 0
0 0 0 0 0 0 0 0 0 0 0 0 0 0 0 0 0 0 0 0 0 0 0 0 0 0 0 0 0 0 0 0 0 0 0 0 0 0 0 0 0 0 0
0 0 0 0 0 0 0 0 0 0 0 0 0 0 0 0 0 0 0 0 0 0 0 0 0 0 0 0 0 0 0 0 0 0 0 0 0 0 0 0 0 0 0
0 0 0 0 0 0 0 0 0 0 0 0 0 0 0 0 0 0 0 0 0 0 0 0 0 0 0 0 0 0 0 0 0 0 0 0 0 0 0 0 0 0 0
0 0 0 0 0 0 0 0 0 0 0 0 0 0 0 0 0 0 0 0 0 0 0 0 0 0 0 0 0 0 0 0 0 0 0 0 0 0 0 0 0 0 0
0 0 0 0 0 0 0 0 0 0 0 0 0 0 0 0 0 0 0 0 0 0 0 0 0 0 0 0 0 0 0 0 0 0 0 0 0 0 0 0 0 0 0
Wind_Speed
12 2 5 8 12 15 16 17 19 19 19 19 19 20 17 13 7 6 11 16 19 11 16 17 13 17 16 14 10 7 5 8 9 13 12 12 14 15 17 18 19 19 20
25 4 4 10 12 14 16 16 17 19 19 20 19 19 16 13 13 17 23 25 24 24 24 23 20 17 14 12 11 9 7 5 8 6 9 12 13 14 15 16 17 19 19
24 15 7 13 13 14 15 16 16 18 18 19 19 18 17 15 15 18 21 23 24 24 23 22 20 18 16 15 14 13 12 10 7 6 8 10 11 13 14 16 16 17 19
21 22 14 14 13 14 14 15 15 17 18 18 17 18 18 18 19 21 22 23 23 23 23 23 21 20 18 16 15 15 14 12 11 9 9 10 12 12 13 14 16 18 18
16 17 16 16 14 12 13 14 15 16 17 17 18 17 17 17 18 20 21 22 23 23 23 23 22 21 20 18 17 16 15 14 12 11 11 11 11 12 12 13 14 16 18
13 13 12 11 11 11 12 13 14 15 16 17 18 18 17 17 17 18 19 20 21 22 22 22 22 22 21 20 19 18 17 15 14 13 13 13 13 14 14 12 13 15 18
7 7 4 4 4 7 9 11 12 14 15 15 16 17 18 18 17 17 17 18 20 21 21 22 21 21 20 20 20 19 19 18 16 15 15 16 16 15 13 13 15 18 18
7 8 11 14 9 5 9 9 10 11 13 14 15 16 17 17 16 17 18 18 19 20 20 20 20 20 20 20 19 19 19 19 18 17 17 18 17 15 13 14 16 16 15
8 11 9 8 16 17 13 7 11 10 11 12 13 15 16 16 15 15 17 17 18 19 20 21 19 19 20 20 19 18 18 18 18 18 19 20 19 17 15 14 14 14 18
7 7 8 12 12 10 10 10 8 10 11 12 13 14 15 15 15 12 14 15 17 18 19 20 21 19 18 19 19 17 17 17 16 17 19 20 20 20 20 19 15 16 19
10 5 3 3 9 7 8 11 10 10 10 12 14 14 15 16 16 11 11 13 15 17 19 20 21 20 20 19 18 17 16 15 16 16 17 19 21 22 22 21 20 17 17
11 8 8 11 3 2 4 7 8 10 10 10 12 14 14 16 17 15 10 11 13 16 18 18 19 19 20 20 20 20 17 15 15 16 15 19 20 21 21 20 20 19 18
13 13 13 12 9 5 3 5 7 7 8 9 11 12 13 14 15 16 15 12 14 16 16 16 18 18 19 21 21 21 20 18 17 17 18 19 20 21 20 21 20 19 18
12 13 13 10 10 9 7 6 6 6 7 9 10 12 12 13 14 14 14 13 14 15 15 16 17 17 19 19 20 21 20 19 19 20 20 20 20 20 20 21 20 21 19
11 11 11 11 10 10 11 10 9 8 8 9 10 11 11 12 13 13 14 14 14 14 14 16 17 18 19 20 20 20 20 20 20 21 22 22 21 21 21 21 20 20 19
9 9 10 10 10 10 9 10 12 11 11 12 12 11 12 12 12 13 13 14 14 13 15 17 17 18 19 19 19 19 19 20 21 22 22 21 21 21 22 21 19 19 19
8 8 9 9 9 9 9 9 9 12 13 14 13 12 13 11 11 12 13 13 13 13 15 16 16 16 18 19 19 19 19 20 21 21 21 21 21 21 20 22 21 20 19
8 8 8 8 9 9 9 10 10 11 12 13 14 14 13 12 13 13 14 13 13 14 15 16 16 16 16 17 18 19 19 20 22 22 21 21 22 21 21 22 22 21 20
8 8 9 9 10 10 11 12 12 12 13 14 14 14 14 14 14 14 14 13 13 15 16 16 15 15 14 16 17 18 19 21 22 23 23 22 23 21 21 21 22 21 21
7 7 7 8 9 9 10 11 11 12 13 14 14 15 15 16 15 14 13 13 14 15 17 17 17 15 15 17 18 18 19 22 23 24 24 24 23 22 23 24 24 24 23
5 5 5 5 7 7 8 9 10 11 12 12 13 13 13 14 14 14 13 13 14 15 16 17 17 18 18 19 19 19 20 22 23 23 23 23 23 22 22 24 23 23 24
2 3 3 3 4 5 6 7 7 9 10 11 11 11 10 11 13 13 14 16 17 17 14 14 16 18 20 21 22 22 23 25 25 25 24 23 23 23 24 24 23 23 25
3 4 3 4 3 4 6 8 8 8 9 9 9 9 9 9 12 13 14 17 19 20 18 16 16 18 20 21 23 24 26 27 27 28 27 25 24 23 23 23 24 25 24
2 1 5 5 5 6 8 9 11 11 14 16 15 13 9 8 12 16 18 17 17 18 19 18 18 19 20 22 24 26 27 28 28 29 28 28 27 27 26 24 24 23 23
3 4 3 5 7 8 10 12 13 15 17 14 13 13 12 11 13 16 16 16 17 17 18 19 19 20 22 24 26 27 29 30 30 30 29 29 29 29 27 27 27 26 26
4 4 5 7 8 11 13 14 17 16 14 13 13 13 13 13 13 14 15 16 17 18 19 20 20 21 23 24 26 28 30 32 33 32 30 30 31 31 31 30 30 29 29
Wind_Direction
120 2 360 29 36 35 31 31 19 8 3 360 353 358 344 320 259 203 150 124 111 86 4 41 37 102 116 118 106 81 60 347 327 328 329 332 333 338 339 341 345 345 348
203 289 13 65 52 47 46 26 19 17 10 12 5 3 351 336 334 357 34 51 66 67 65 52 40 46 50 47 42 25 28 37 353 2 341 335 344 345 347 350 348 345 346
213 225 63 99 75 67 45 26 16 20 15 13 10 9 4 347 349 5 19 30 36 38 39 38 32 30 25 18 12 6 3 12 21 24 2 356 354 353 354 355 355 354 351
151 149 108 110 91 78 49 30 14 19 19 13 9 9 10 10 14 22 29 31 30 30 31 32 29 26 23 18 12 7 13 15 18 18 3 357 353 359 357 355 352 353 353
124 128 128 130 109 71 38 35 30 25 20 17 13 8 7 12 24 30 30 31 32 30 28 26 23 23 20 16 17 14 19 19 17 14 5 355 354 349 347 350 351 354 348
123 128 121 115 109 88 67 54 45 32 30 28 17 16 9 6 29 30 28 25 22 25 24 26 25 23 22 20 21 19 17 21 17 8 358 352 348 342 344 347 351 345 340
93 111 78 31 45 60 61 64 52 44 41 30 23 17 14 16 22 25 28 23 24 20 21 22 23 18 16 17 17 14 11 11 10 11 360 349 344 347 353 346 340 338 337
353 332 321 308 331 37 99 67 48 37 30 32 25 16 13 11 19 26 30 30 23 16 14 16 16 14 16 18 17 11 6 3 3 5 2 355 354 355 353 342 336 340 342
4 324 323 66 158 162 143 68 99 37 28 29 23 14 10 11 21 34 32 32 26 20 15 12 14 17 18 15 16 19 15 9 8 9 6 0 356 352 350 349 348 343 333
10 62 128 157 160 156 137 120 52 55 48 36 19 7 1 358 7 37 34 31 23 19 12 10 9 13 17 12 11 14 11 9 9 3 0 359 357 353 344 337 337 333 332
33 120 85 70 161 158 146 133 99 76 52 33 19 2 352 358 359 39 43 30 25 16 12 11 8 9 13 13 12 12 9 8 5 5 5 1 354 352 350 347 345 336 329
354 12 354 345 14 102 129 106 81 83 71 51 35 26 6 358 356 1 27 23 23 14 11 17 16 15 14 11 9 7 7 4 6 3 4 356 353 351 351 352 355 356 355
337 341 340 346 358 8 68 59 59 61 56 40 27 22 16 14 7 5 14 27 22 19 24 25 20 18 15 11 10 7 8 13 10 3 357 352 350 348 349 349 347 348 350
343 341 342 2 11 15 22 27 35 39 33 22 21 17 14 12 10 12 16 19 19 24 27 22 19 17 14 12 8 7 8 5 3 358 353 350 350 349 348 349 347 343 341
3 2 6 9 12 11 5 1 3 14 17 13 9 10 9 6 12 19 16 13 16 22 20 13 6 3 1 0 0 1 2 2 0 358 354 351 349 348 345 346 348 346 345
3 1 3 6 10 15 18 15 7 9 9 8 11 13 8 12 18 17 15 14 15 18 7 1 4 5 2 360 359 358 359 357 356 355 354 353 353 351 349 350 349 348 347
4 7 9 12 15 20 21 20 16 7 6 5 8 14 11 18 16 11 9 10 12 8 4 2 5 5 6 7 7 8 5 2 359 356 354 354 353 352 351 347 347 347 346
20 31 31 32 34 32 27 21 19 13 8 5 8 11 15 17 14 11 8 10 9 6 2 2 3 4 3 4 8 9 6 4 1 1 357 353 350 348 347 348 345 344 343
35 40 44 43 39 37 34 33 32 30 25 21 19 21 21 16 14 10 8 13 10 3 0 359 0 3 7 6 4 2 1 358 357 356 353 349 347 348 344 343 342 342 339
60 61 50 40 34 31 31 31 25 21 18 18 19 20 16 11 11 11 12 9 8 5 1 3 8 12 9 3 359 358 355 352 351 350 349 346 344 343 340 337 336 334 334
72 70 56 37 24 21 18 18 18 15 13 12 10 11 14 11 11 11 8 6 2 359 358 358 359 1 359 1 1 357 352 350 348 347 347 349 349 344 341 339 336 336 334
38 92 95 41 35 37 36 30 19 11 4 1 360 2 11 9 3 1 1 356 352 350 350 351 352 353 353 352 351 350 348 346 345 345 343 341 341 339 337 337 337 333 331
80 89 49 22 36 30 13 4 360 359 359 356 353 350 350 356 358 357 356 353 348 350 352 351 349 350 352 352 352 349 346 344 343 343 342 339 337 334 331 328 327 326 326
93 29 349 9 14 11 3 2 2 4 351 346 350 351 351 347 348 345 345 350 351 353 358 0 360 357 354 352 349 348 345 344 342 340 339 338 337 336 334 329 325 322 320
334 340 2 354 351 353 352 348 350 349 348 353 357 0 4 0 354 355 359 2 3 2 1 1 359 357 355 352 350 348 347 345 343 341 341 340 337 335 332 330 328 325 324
6 13 7 1 357 346 341 341 339 346 355 357 1 4 4 4 5 6 7 7 5 3 1 360 359 357 354 351 349 347 345 343 342 342 341 339 336 335 333 331 330 327 326